Location: Cosy Dell
(34.2789°N, 117.4537°W)
Time: 21:09:49
(UTC+00:00)

CSL-04 DEB - Pass Details

Date: 14 July 2020
Orbit: 545 x 628 km, 98.7° (Epoch: 13 August)

Event Time Altitude Azimuth Distance (km) Brightness Sun altitude
Exits shadow 11:26:49 12° 179° (S) 1,784 6.6 -15.0°
Maximum altitude 11:30:35 58° 258° (WSW) 683 4.5 -14.4°
Drops below altitude 10° 11:34:37 10° 338° (NNW) 1,888 7.3 -13.7°
Sets 11:36:46 0° 343° (NNW) 2,776 8.2 -13.4°
